EW6230 Weather Reports


time (UTC)temp
C
wind
direction
speed
KPH
gust
KPH
rain 1hr
cm
rain 24hr
cm
rain mn
cm
humidity
%
barometer
mb
20260503050048 15 71 0.0 0.0 0.00 0.00 0.00 58 1011.3
20260503044546 16 76 0.0 0.0 0.00 0.00 0.00 58 1011.2
20260503043050 16 76 0.0 0.0 0.00 0.00 0.00 57 1011.1
20260503041535 16 77 0.0 0.0 0.00 0.00 0.00 57 1011.0
20260503040033 17 76 0.0 0.0 0.00 0.00 0.00 55 1010.8
20260503034526 17 77 0.0 0.0 0.00 0.00 0.00 54 1010.7
20260503033021 18 77 0.0 0.0 0.00 0.00 0.00 52 1010.5
20260503031517 19 77 0.0 0.0 0.00 0.00 0.00 48 1010.4
20260503030013 20 77 0.0 0.0 0.00 0.00 0.00 43 1010.4
20260503024508 20 77 0.0 0.0 0.00 0.00 0.00 40 1010.4
20260503023003 21 74 0.0 0.0 0.00 0.00 0.00 38 1010.4
20260503021600 21 75 0.0 0.0 0.00 0.00 0.00 37 1010.5
20260503020055 21 75 0.0 0.0 0.00 0.00 0.00 36 1010.6
20260503014600 21 75 0.0 0.0 0.00 0.00 0.00 35 1010.6
20260503013048 21 75 0.0 0.0 0.00 0.00 0.00 38 1010.8
20260503011542 22 75 0.0 0.0 0.00 0.00 0.00 38 1010.9
20260503010038 22 75 0.0 0.0 0.00 0.00 0.00 38 1011.0
20260503004536 22 74 0.0 0.0 0.00 0.00 0.00 37 1010.9
20260503003042 23 74 0.0 0.0 0.00 0.00 0.00 36 1011.0
20260503001524 24 75 0.0 0.0 0.00 0.00 0.00 36 1011.0
20260503000024 25 63 0.0 0.0 0.00 0.00 0.00 34 1011.1
20260502234514 26 79 0.0 0.0 0.00 0.00 0.00 33 1011.1
20260502233026 25 80 0.0 0.0 0.00 0.00 0.00 35 1011.4
20260502231505 25 87 0.0 0.0 0.00 0.00 0.00 35 1011.6
20260502230104 25 165 0.0 0.0 0.00 0.00 0.00 35 1011.8
20260502224557 24 162 0.0 0.0 0.00 0.00 0.00 35 1012.2
20260502223052 24 95 0.0 0.0 0.00 0.00 0.00 34 1012.5
20260502221547 25 136 0.0 0.0 0.00 0.00 0.00 35 1012.8
20260502220042 23 155 0.0 0.0 0.00 0.00 0.00 40 1012.9
20260502214552 23 17 0.0 0.0 0.00 0.00 0.00 42 1013.1
20260502213034 23 87 0.0 0.0 0.00 0.00 0.00 42 1013.1
20260502211532 22 86 0.0 0.0 0.00 0.00 0.00 41 1013.3
20260502210031 23 30 0.0 0.0 0.00 0.00 0.00 46 1013.2
20260502204520 22 160 0.0 0.0 0.00 0.00 0.00 45 1013.4
20260502203015 23 26 0.0 0.0 0.00 0.00 0.00 43 1013.6
20260502201513 23 89 0.0 0.0 0.00 0.00 0.00 43 1013.7
20260502200006 22 332 0.0 0.0 0.00 0.00 0.00 44 1013.9
20260502194505 22 100 0.0 0.0 0.00 0.00 0.00 48 1014.0
20260502193059 21 80 0.0 0.0 0.00 0.00 0.00 47 1014.1
20260502191603 21 20 0.0 0.0 0.00 0.00 0.00 53 1014.2
20260502190052 20 83 0.0 0.0 0.00 0.00 0.00 50 1014.4
20260502184550 21 314 0.0 0.0 0.00 0.00 0.00 50 1014.4
20260502183041 20 91 0.0 0.0 0.00 0.00 0.00 52 1014.6
20260502181543 21 82 0.0 0.0 0.00 0.00 0.00 52 1014.6
20260502163015 16 243 0.0 0.0 0.00 0.00 0.00 52 1015.0
20260502161607 15 243 0.0 0.0 0.00 0.00 0.00 43 1014.9
20260502151553 13 243 0.0 0.0 0.00 0.00 0.00 1 1014.5
20260502123104 8 243 0.0 0.0 0.00 0.00 0.00 1 1013.7
20260502121550 8 243 0.0 0.0 0.00 0.00 0.00 1 1013.6
20260502114542 8 243 0.0 0.0 0.00 0.00 0.00 1 1013.3
20260502113037 8 243 0.0 0.0 0.00 0.00 0.00 1 1013.2
20260502111532 8 243 0.0 0.0 0.00 0.00 0.00 1 1013.4
20260502110028 8 243 0.0 0.0 0.00 0.00 0.00 1 1013.1
20260502104528 8 243 0.0 0.0 0.00 0.00 0.00 1 1013.0
20260502103019 8 240 0.0 0.0 0.00 0.00 0.00 1 1012.9
20260502101514 8 240 0.0 0.0 0.00 0.00 0.00 1 1013.0
20260502090111 9 240 0.0 0.0 0.00 0.00 0.00 1 1013.2
20260502071521 10 186 0.0 0.0 0.00 0.00 0.00 1 1013.0
20260502070017 10 154 0.0 0.0 0.00 0.00 0.00 1 1013.1
20260502064512 10 154 0.0 0.0 0.00 0.00 0.00 1 1013.1
20260502063008 10 154 0.0 0.0 0.00 0.00 0.00 1 1013.0
20260502061502 10 154 0.0 0.0 0.00 0.00 0.00 1 1013.0
20260502060059 11 154 0.0 0.0 0.00 0.00 0.00 1 1012.9
20260502054555 11 154 0.0 0.0 0.00 0.00 0.00 1 1012.8
20260502053101 11 154 0.0 0.0 0.00 0.00 0.00 1 1012.8
20260502051546 11 154 0.0 0.0 0.00 0.00 0.00 1 1012.7